Regional Weather Roundup
Issued by NWS

Home | Current Version | Previous Version | Graphics & Text | Print | Product List | Glossary Off
Versions: 1 2 3 4 5 6 7 8 9 10 11 12 13 14 15 16 17 18 19 20 21 22 23 24 25 26 27 28 29 30 31 32 33 34 35 36 37 38 39 40 41 42 43 44 45 46 47 48 49 50

000
ASUS43 KLSX 310359
RWRMO

WEATHER SUMMARY FOR MISSOURI
NATIONAL WEATHER SERVICE SPRINGFIELD MO
1100 PM CDT THU OCT 30 2014

NOTE: "FAIR" INDICATES FEW OR NO CLOUDS BELOW 12,000 FEET WITH NO
       SIGNIFICANT WEATHER AND/OR OBSTRUCTIONS TO VISIBILITY.
       CURRENT SKY AND/OR WEATHER CONDITIONS ARE NOT AVAILABLE FOR
       CHILLICOTHE AND FARMINGTON.

MOZ001>031-035>038-043-044-053-054-310500-
...NORTHERN AND WESTERN MISSOURI...

CITY           SKY/WX    TMP DP  RH WIND       PRES   REMARKS
KANSAS CTY INT CLEAR     52  42  69 N20G25    30.19R
KANSAS C DTWN  CLEAR     55  41  59 N13       30.18R
LEE`S SUMMIT   CLEAR     54  41  61 NW15G23   30.17R
ST JOSEPH      PTCLDY    50  41  71 N10       30.22R
CHILLICOTHE      N/A     53  38  56 N9G17     30.15R
KIRKSVILLE     CLOUDY    49  44  83 N5        30.11R

$$
MOZ066>068-077>081-088>096-101>105-310500-
...SOUTHWEST MISSOURI...

CITY           SKY/WX    TMP DP  RH WIND       PRES   REMARKS
SPRINGFIELD    CLEAR     51  41  68 NW12      30.10R
JOPLIN         CLEAR     52  40  63 N8        30.16R

$$
MOZ032>034-039>042-045>050-055>058-069>072-310500-
...CENTRAL MISSOURI...

CITY           SKY/WX    TMP DP  RH WIND       PRES   REMARKS
COLUMBIA       CLEAR     48  44  86 N6        30.07R
JEFFERSON CITY CLEAR     45  44  97 NW3       30.07R
ROLLA          FOG       40  39  97 CALM      30.03S VSB 1/4
SEDALIA        CLEAR     53  41  63 NW10      30.11R
OSAGE BEACH    CLEAR     48  45  87 NW3       30.07R

$$
MOZ051-052-059>065-310500-
...EAST CENTRAL MISSOURI...

CITY           SKY/WX    TMP DP  RH WIND       PRES   REMARKS
ST LOUIS INTL  PTCLDY    50  44  80 NW6       30.05R
SPIRIT OF STL  PTCLDY    45  43  93 CALM      30.04S
ST CHARLES     PTCLDY    48  45  89 N6        30.05R

$$
MOZ072>076-082>087-097>100-106>115-310500-
...SOUTH CENTRAL AND SOUTHEAST MISSOURI...

CITY           SKY/WX    TMP DP  RH WIND       PRES   REMARKS
CAPE GIRARDEAU CLOUDY    52  50  93 SE3       30.03F
FARMINGTON     CLEAR     46  45  93 CALM      30.05R
POPLAR BLUFF   PTCLDY    51  46  83 NE3       30.01F
WEST PLAINS    CLEAR     46  40  79 W5        30.05R

$$



USA.gov is the U.S. government's official web portal to all federal, state and local government web resources and services.